Вернуться в каталог

LEMUR 2 MONSON

АктивенНаукаSSO
NORAD 42839·PAYLOAD·🇺🇸 United States

Запущен Jul 14, 2017 с Baikonur Cosmodrome

Loading…

Ближайшие Пролёты (ближайшие 24 часа)

TLE

СвежийSource: Space-Track

Эпоха: Sep 14, 2026, 11:35 UTC

1 42839U 17042Q   26257.48276593  .00011269  00000-0  38719-3 0  9996
2 42839  97.4122  77.7186 0007138  45.9252 314.2575 15.30253556501812

Отслеживайте LEMUR 2 MONSON в реальном времени с AllMySat

Download on the App Store